This is the latest recevied weather packets stored in our database for station/object K5DLF-13. If no packets are shown the sender has not sent any weather packets the latest 10 day(s).
| Time | Temp. | Humidity | Pressure | Rain* | Wind** | Luminosity | Snow |
|---|---|---|---|---|---|---|---|
| 1777841702 | 28.33° C | 44% | 1017.3 hPa | 0 mm | - | 765 W/m² | - |
| 1777841402 | 28.33° C | 40% | 1017.2 hPa | 0 mm | - | 772 W/m² | - |
| 1777841102 | 28.33° C | 39% | 1017.3 hPa | 0 mm | - | 791 W/m² | - |
| 1777840802 | 28.89° C | 41% | 1017.4 hPa | 0 mm | - | 819 W/m² | - |
| 1777840502 | 28.89° C | 42% | 1017.6 hPa | 0 mm | - | 810 W/m² | - |
| 1777840202 | 28.89° C | 41% | 1017.7 hPa | 0 mm | - | 831 W/m² | - |
| 1777839902 | 28.89° C | 43% | 1017.7 hPa | 0 mm | - | 722 W/m² | - |
| 1777839602 | 28.89° C | 44% | 1017.8 hPa | 0 mm | - | 817 W/m² | - |
| 1777839302 | 28.33° C | 39% | 1017.9 hPa | 0 mm | - | 860 W/m² | - |
| 1777839002 | 28.89° C | 36% | 1017.9 hPa | 0 mm | - | 865 W/m² | - |
| 1777838702 | 28.33° C | 41% | 1018 hPa | 0 mm | - | 868 W/m² | - |
| 1777838402 | 28.33° C | 42% | 1018 hPa | 0 mm | - | 879 W/m² | - |
| 1777838102 | 28.33° C | 37% | 1018.1 hPa | 0 mm | - | 891 W/m² | - |
| 1777837802 | 28.89° C | 40% | 1018 hPa | 0 mm | - | 895 W/m² | - |
| 1777837502 | 28.89° C | 41% | 1018.1 hPa | 0 mm | - | 904 W/m² | - |
| 1777837202 | 28.89° C | 44% | 1018.1 hPa | 0 mm | - | 656 W/m² | - |
| 1777836902 | 28.89° C | 41% | 1018.3 hPa | 0 mm | - | 146 W/m² | - |
| 1777836602 | 28.89° C | 44% | 1018.5 hPa | 0 mm | - | 889 W/m² | - |
| 1777836302 | 28.33° C | 40% | 1018.5 hPa | 0 mm | - | 923 W/m² | - |
| 1777836002 | 28.33° C | 37% | 1018.6 hPa | 0 mm | - | 928 W/m² | - |
| 1777835702 | 28.89° C | 41% | 1018.6 hPa | 0 mm | - | 928 W/m² | - |
| 1777835402 | 28.33° C | 42% | 1018.7 hPa | 0 mm | - | 937 W/m² | - |
| 1777835102 | 28.33° C | 47% | 1018.8 hPa | 0 mm | - | 940 W/m² | - |
| 1777834802 | 28.33° C | 42% | 1018.8 hPa | 0 mm | - | 944 W/m² | - |
| 1777834502 | 28.33° C | 41% | 1019 hPa | 0 mm | - | 949 W/m² | - |
* Rain latest hour (hover to see other rain measurements)
** Current wind speed in m/s (hover to see current wind gust speed)